Weather Service Report


653 
ASUS44 KFWD 191315
RWRTX 
NORTH TEXAS HOURLY WEATHER ROUNDUP
NATIONAL WEATHER SERVICE FORT WORTH TX
800 AM CDT SAT APR 19 2014

NOTE: "FAIR" INDICATES FEW OR NO CLOUDS BELOW 12,000 FEET WITH NO
SIGNIFICANT WEATHER AND/OR OBSTRUCTIONS TO VISIBILITY.

TXZ118-119-191400-
DALLAS/FORT WORTH METROPLEX
  
CITY           SKY/WX    TMP DP  RH WIND       PRES   REMARKS
DFW AIRPORT    PTSUNNY   58  50  75 CALM      30.17R                  
DALLAS LOVE    PTSUNNY   60  51  72 SE5       30.18R                  
FTW MEACHAM    MOSUNNY   57  50  77 SE6       30.16R                  
DAL-EXECUTIVE  SUNNY     58  51  78 S3        30.17R                  
FTW-ALLIANCE   MOSUNNY   54  49  83 CALM      30.17R                  
FTW-NAS-JRB    SUNNY     58  51  78 CALM      30.21R                  
FTW-SPINKS     SUNNY     52  48  87 CALM      30.19R                  
ARLINGTON      SUNNY     57  52  83 S5        30.17R                  
GRAND PRAIRIE  SUNNY     57  50  77 S3        30.20R                  
MESQUITE       SUNNY     55  52  88 CALM      30.19R                  
LANCASTER      SUNNY     51  47  87 CALM      30.19R                  
$$

TXZ091>094-102>105-117-120-121-131>134-191400-
NORTH CENTRAL TEXAS
  
CITY           SKY/WX    TMP DP  RH WIND       PRES   REMARKS
SHRMAN/DENISON MOSUNNY   55  49  82 CALM      30.19R                  
GAINESVILLE    SUNNY     51  47  88 CALM      30.19R                  
BOWIE          MOSUNNY   55  48  78 SE3       30.17R                  
BRIDGEPORT     MOSUNNY   49  49 100 CALM      30.18R FOG              
DECATUR        MOSUNNY   55  47  74 SE7       30.17R                  
DENTON         SUNNY     51  48  89 CALM      30.18R                  
MCKINNEY       MOSUNNY   54  50  86 CALM      30.18R                  
GREENVILLE     SUNNY     54  52  94 CALM      30.19R                  
ROCKWALL       SUNNY     58  54  86 E3        30.17R                  
TERRELL        SUNNY     56  53  90 CALM      30.18R                  
WAXAHACHIE     SUNNY     54  50  86 CALM      30.19R                  
CLEBURNE       MOSUNNY   55  52  88 SE6       30.19R                  
GRANBURY       MOSUNNY   52  50  92 CALM      30.18R                  
$$

TXZ083>090-098>101-113>116-127>130-139>142-154-155-191400-
WESTERN NORTH TEXAS
  
CITY           SKY/WX    TMP DP  RH WIND       PRES   REMARKS
WICHITA FALLS  SUNNY     55  50  83 S7        30.14R                  
WF-KICKAPOO    SUNNY     54  49  83 SE5       30.15S                  
VERNON         SUNNY     50  47  92 CALM      30.14R                  
ABILENE        MOSUNNY   59  50  72 S8        30.14R                  
ABILENE-DYESS  SUNNY     59  51  74 S8        30.13R                  
BRECKENRIDGE   SUNNY     61  50  66 S8        30.15R                  
GRAHAM         SUNNY     58  49  74 SE5       30.13S                  
MINERAL WELLS  SUNNY     52  50  93 SE3       30.15R                  
STEPHENVILLE   MOSUNNY   54  50  88 E3        30.17S                  
COMANCHE       MOSUNNY   53  51  92 S6        30.15R                  
BROWNWOOD      MOSUNNY   54  50  87 S3        30.16R                  
COLEMAN        MOSUNNY   53  49  87 CALM      30.16R                  
BRADY          SUNNY     54  52  94 SE5       30.15R                  
$$

TXZ143>147-156>162-174-175-191400-
CENTRAL TEXAS
  
CITY           SKY/WX    TMP DP  RH WIND       PRES   REMARKS
WACO           SUNNY     52  50  93 CALM      30.17R FOG              
WACO-TSTC      SUNNY     54  54 100 CALM      30.18R                  
WACO-MCGREGOR    N/A     52  46  82 E3        30.18R                  
HILLSBORO      SUNNY     56  50  80 CALM      30.18R                  
CORSICANA      SUNNY     60  53  77 SE7       30.19R                  
MEXIA          SUNNY     56  53  89 SE5       30.17R                  
HEARNE         MOSUNNY   55  53  91 CALM      30.18R                  
CAMERON        MOSUNNY   53  52  95 CALM      30.17R FOG              
TEMPLE         MOSUNNY   52  46  82 CALM      30.19S                  
KILLEEN        MOSUNNY   55  52  88 CALM      30.16R                  
KILLEEN-SKYLRK MOSUNNY   55  48  76 CALM      30.14S                  
FORT HOOD      MOSUNNY   60  53  77 CALM      30.16R                  
GATESVILLE     PTSUNNY   54  52  94 CALM      30.18S                  
HAMILTON       MOSUNNY   54  52  95 S6        30.17R                  
LAMPASAS       MOSUNNY   55  54  94 CALM      30.16R                  
$$

TXZ095>097-106>112-122>126-135>138-148>153-164>167-191400-
EAST TEXAS
  
CITY           SKY/WX    TMP DP  RH WIND       PRES   REMARKS
PARIS          SUNNY     54  48  82 E6        30.21R                  
SULPHUR SPRNGS SUNNY     52  51  97 CALM      30.22R FOG              
CLARKSVILLE    SUNNY     57  50  78 CALM      30.21R                  
MOUNT PLEASANT SUNNY     51  50  97 CALM      30.22R                  
GILMER         SUNNY     54  54 100 CALM      30.22R FOG              
MINEOLA        SUNNY     50  50 100 CALM      30.20R FOG              
TYLER          SUNNY     57  51  80 CALM      30.19R                  
LONGVIEW       SUNNY     53  50  89 CALM      30.19R                  
MARSHALL       SUNNY     54  52  91 CALM      30.22R                  
ATHENS         SUNNY     52  50  93 CALM      30.18R                  
PALESTINE      SUNNY     55  52  89 CALM      30.20R                  
JACKSONVILLE   SUNNY     57  52  84 CALM      30.21R                  
HENDERSON      SUNNY     52  50  93 CALM      30.20R                  
NACOGDOCHES    SUNNY     50  46  87 CALM      30.19R                  
LUFKIN         MOSUNNY   59  55  87 CALM      30.18R                  
$$

SUPPLEMENTAL OBSERVATIONS (CENTRAL)
  
CITY           SKY/WX    TMP DP  RH WIND       PRES   REMARKS
LAKE TEXOMA      N/A     50  48  93 E7          N/A                   
CADDO GRASSLND   N/A     50  46  87 E1          N/A                   
PAT MAYSE LAKE   N/A     54  48  82 N1          N/A                   
GREENVILLE       N/A     57  52  82 E3          N/A                   
CEDAR HILL       N/A     63  52  67 S9          N/A                   
PALESTINE        N/A     55  52  88 CALM        N/A                   
LAKE LIMESTONE   N/A     57  54  88 SE2         N/A                   
MCGREGOR         N/A     55  52  88 CALM        N/A                   
TEMPLE           N/A     59  54  82 NE2         N/A                   
$$

SUPPLEMENTAL OBSERVATIONS (WEST)
  
CITY           SKY/WX    TMP DP  RH WIND       PRES   REMARKS
MILLERS CREEK    N/A     55  48  76 SW5         N/A                   
POSSUM KINGDOM   N/A     59  52  77 SE5         N/A                   
LBJ GRASSLAND    N/A     57  48  72 SE6         N/A                   
GRANBURY         N/A     55  52  88 CALM        N/A                   
COMANCHE         N/A     55  52  88 S6          N/A                   
HAMBY            N/A     57  50  77 S7          N/A                   
$$

SUPPLEMENTAL OBSERVATIONS (EAST)
  
CITY           SKY/WX    TMP DP  RH WIND       PRES   REMARKS
TEXARKANA        N/A     54  52  94 CALM        N/A                   
LINDEN           N/A     55  50  82 CALM        N/A                   
CADDO LAKE       N/A     55  54  94 CALM        N/A                   
LUFKIN           N/A     55  52  88 MISG        N/A                   
N SABINE NF      N/A     48  46  93 MISG        N/A                   
$$

SUPPLEMENTAL OBSERVATIONS ARE A COLLECTION OF AUTOMATED INSTRUMENTS
THAT ARE MAINTAINED BY A VARIETY OF FEDERAL AND STATE AGENCIES. 
CERTAIN ELEMENTS...SUCH AS HUMIDITY VALUES AND SUSTAINED WIND 
SPEEDS...MAY BE APPROXIMATED.


Return to Home page


Western Regional Climate Center, wrcc@dri.edu